QPF
0.00 0.00 0.00 0.00 0.00 0.00 0.00 0.00 0.00 0.00 0.00 0.00 0.00 0.00 0.00 0.00 0.00 0.00 0.00 0.00 0.00 0.00 0.00 0.00 0.00 0.00 0.00 0.00 0.00 0.00 0.00 0.00 0.00 0.00 0.00 0.00 0.00 0.00 0.00 0.00 0.00 0.00 0.00 0.00 0.00
0.00 0.00 0.00 0.00 0.00 0.00 0.00 0.00 0.00 0.00 0.00 0.00 0.00 0.00 0.00 0.00 0.00 0.00 0.00 0.00 0.00 0.00 0.00 0.00 0.00 0.00 0.00 0.00 0.00 0.00 0.00 0.00 0.00 0.00 0.00 0.00 0.00 0.00 0.00 0.00 0.00 0.00 0.00 0.00 0.00
0.00 0.00 0.00 0.00 0.00 0.00 0.00 0.00 0.00 0.00 0.00 0.00 0.00 0.00 0.00 0.00 0.00 0.00 0.00 0.00 0.00 0.00 0.00 0.00 0.00 0.00 0.00 0.00 0.00 0.00 0.00 0.00 0.00 0.00 0.00 0.00 0.00 0.00 0.00 0.00 0.00 0.00 0.00 0.00 0.00
0.00 0.00 0.00 0.00 0.00 0.00 0.00 0.00 0.00 0.00 0.00 0.00 0.00 0.00 0.00 0.00 0.00 0.00 0.00 0.00 0.00 0.00 0.00 0.00 0.00 0.00 0.00 0.00 0.00 0.00 0.00 0.00 0.00 0.00 0.00 0.00 0.00 0.00 0.00 0.00 0.00 0.00 0.00 0.00 0.00
0.00 0.00 0.00 0.00 0.00 0.00 0.00 0.00 0.00 0.00 0.00 0.00 0.00 0.00 0.00 0.00 0.00 0.00 0.00 0.00 0.00 0.00 0.00 0.00 0.00 0.00 0.00 0.00 0.00 0.00 0.00 0.00 0.00 0.00 0.00 0.00 0.00 0.00 0.00 0.00 0.00 0.00 0.00 0.00 0.00
0.00 0.00 0.00 0.00 0.00 0.00 0.00 0.00 0.00 0.00 0.00 0.00 0.00 0.00 0.00 0.00 0.00 0.00 0.00 0.00 0.00 0.00 0.00 0.00 0.00 0.00 0.00 0.00 0.00 0.00 0.00 0.00 0.00 0.00 0.00 0.02 0.00 0.00 0.00 0.00 0.00 0.00 0.00 0.00 0.00
0.00 0.00 0.00 0.00 0.00 0.00 0.00 0.00 0.00 0.00 0.00 0.00 0.00 0.00 0.00 0.00 0.00 0.00 0.00 0.00 0.00 0.00 0.00 0.00 0.00 0.00 0.00 0.00 0.00 0.00 0.00 0.00 0.00 0.00 0.00 0.01 0.00 0.00 0.00 0.00 0.00 0.00 0.00 0.00 0.00
0.00 0.00 0.00 0.00 0.00 0.00 0.00 0.00 0.00 0.00 0.00 0.00 0.00 0.00 0.00 0.00 0.00 0.00 0.00 0.00 0.00 0.00 0.00 0.00 0.00 0.00 0.00 0.00 0.00 0.00 0.00 0.00 0.00 0.00 0.00 0.00 0.00 0.00 0.00 0.00 0.00 0.02 0.04 0.01 0.00
0.00 0.00 0.00 0.00 0.00 0.00 0.00 0.00 0.00 0.00 0.00 0.00 0.00 0.00 0.00 0.00 0.00 0.00 0.00 0.00 0.00 0.00 0.00 0.00 0.00 0.01 0.01 0.01 0.00 0.00 0.00 0.00 0.00 0.00 0.01 0.00 0.00 0.00 0.00 0.00 0.00 0.02 0.04 0.10 0.10
0.00 0.00 0.00 0.00 0.00 0.00 0.00 0.00 0.00 0.00 0.00 0.00 0.00 0.00 0.00 0.00 0.00 0.00 0.00 0.00 0.00 0.00 0.00 0.00 0.00 0.00 0.00 0.00 0.00 0.00 0.00 0.00 0.00 0.01 0.02 0.00 0.00 0.01 0.00 0.00 0.00 0.01 0.02 0.06 0.17
0.00 0.00 0.00 0.00 0.00 0.00 0.00 0.00 0.00 0.00 0.00 0.00 0.00 0.00 0.00 0.00 0.00 0.00 0.00 0.00 0.00 0.00 0.00 0.00 0.00 0.00 0.00 0.00 0.00 0.00 0.00 0.00 0.00 0.01 0.03 0.01 0.00 0.02 0.00 0.00 0.00 0.00 0.01 0.01 0.04
0.00 0.00 0.00 0.00 0.00 0.00 0.00 0.00 0.00 0.00 0.00 0.00 0.00 0.00 0.00 0.00 0.00 0.00 0.00 0.00 0.00 0.00 0.00 0.00 0.00 0.00 0.00 0.00 0.00 0.00 0.00 0.00 0.00 0.02 0.04 0.02 0.02 0.03 0.00 0.00 0.00 0.00 0.00 0.00 0.01
0.00 0.00 0.00 0.00 0.00 0.00 0.00 0.00 0.00 0.00 0.00 0.00 0.00 0.00 0.00 0.00 0.00 0.00 0.00 0.00 0.00 0.00 0.00 0.00 0.00 0.00 0.00 0.00 0.00 0.00 0.00 0.00 0.01 0.02 0.02 0.02 0.01 0.00 0.00 0.00 0.00 0.00 0.00 0.00 0.00
0.00 0.00 0.00 0.00 0.00 0.00 0.00 0.00 0.00 0.00 0.00 0.00 0.00 0.00 0.00 0.00 0.00 0.00 0.00 0.00 0.00 0.00 0.00 0.00 0.00 0.00 0.00 0.00 0.00 0.00 0.00 0.00 0.00 0.00 0.00 0.00 0.00 0.00 0.00 0.00 0.00 0.00 0.00 0.00 0.00
0.00 0.00 0.00 0.00 0.00 0.00 0.00 0.00 0.00 0.00 0.00 0.00 0.00 0.00 0.00 0.00 0.00 0.00 0.00 0.00 0.00 0.00 0.00 0.00 0.00 0.00 0.00 0.00 0.00 0.00 0.00 0.00 0.00 0.00 0.00 0.00 0.00 0.00 0.00 0.00 0.00 0.00 0.00 0.00 0.00
0.00 0.00 0.00 0.00 0.00 0.00 0.00 0.00 0.00 0.00 0.00 0.00 0.00 0.00 0.00 0.00 0.00 0.00 0.00 0.00 0.00 0.00 0.00 0.00 0.00 0.00 0.00 0.00 0.00 0.00 0.00 0.00 0.00 0.00 0.00 0.00 0.00 0.00 0.00 0.00 0.00 0.00 0.00 0.00 0.00
0.00 0.00 0.00 0.00 0.00 0.00 0.00 0.00 0.00 0.00 0.00 0.00 0.00 0.00 0.00 0.00 0.00 0.00 0.00 0.00 0.00 0.00 0.00 0.00 0.00 0.00 0.00 0.00 0.00 0.00 0.00 0.00 0.00 0.00 0.00 0.00 0.00 0.00 0.00 0.00 0.00 0.00 0.00 0.00 0.00
0.00 0.00 0.00 0.00 0.00 0.00 0.00 0.00 0.00 0.00 0.00 0.00 0.00 0.00 0.00 0.00 0.00 0.00 0.00 0.00 0.00 0.00 0.00 0.00 0.00 0.00 0.00 0.00 0.00 0.00 0.00 0.00 0.00 0.00 0.00 0.00 0.00 0.00 0.00 0.00 0.00 0.00 0.00 0.00 0.00
0.00 0.00 0.00 0.00 0.00 0.00 0.00 0.00 0.00 0.00 0.00 0.00 0.00 0.00 0.00 0.00 0.00 0.00 0.00 0.00 0.00 0.00 0.00 0.00 0.00 0.00 0.00 0.00 0.00 0.00 0.00 0.00 0.00 0.00 0.00 0.00 0.00 0.00 0.00 0.00 0.00 0.00 0.00 0.00 0.00
0.00 0.00 0.00 0.00 0.00 0.00 0.00 0.00 0.00 0.00 0.00 0.00 0.00 0.00 0.00 0.00 0.00 0.00 0.00 0.00 0.00 0.00 0.00 0.00 0.00 0.00 0.00 0.00 0.00 0.00 0.00 0.00 0.00 0.00 0.00 0.00 0.00 0.00 0.00 0.00 0.00 0.00 0.00 0.00 0.00
0.00 0.00 0.00 0.00 0.00 0.00 0.00 0.00 0.00 0.00 0.00 0.00 0.00 0.00 0.00 0.00 0.00 0.00 0.00 0.00 0.00 0.00 0.00 0.00 0.00 0.00 0.00 0.00 0.00 0.00 0.00 0.00 0.00 0.00 0.00 0.00 0.00 0.00 0.00 0.00 0.00 0.00 0.00 0.00 0.00
0.00 0.00 0.00 0.00 0.00 0.00 0.00 0.00 0.00 0.00 0.00 0.00 0.00 0.00 0.00 0.00 0.00 0.00 0.00 0.00 0.00 0.00 0.00 0.00 0.00 0.00 0.00 0.00 0.00 0.00 0.00 0.00 0.00 0.00 0.00 0.00 0.00 0.00 0.00 0.00 0.00 0.00 0.00 0.00 0.00
0.00 0.00 0.00 0.00 0.00 0.00 0.00 0.00 0.00 0.00 0.00 0.00 0.00 0.00 0.00 0.00 0.00 0.00 0.00 0.00 0.00 0.00 0.00 0.00 0.00 0.00 0.00 0.00 0.00 0.00 0.00 0.00 0.00 0.00 0.00 0.00 0.00 0.00 0.00 0.00 0.00 0.00 0.00 0.00 0.00
0.00 0.00 0.00 0.00 0.00 0.00 0.00 0.00 0.00 0.00 0.00 0.00 0.00 0.00 0.00 0.00 0.00 0.00 0.00 0.00 0.00 0.00 0.00 0.00 0.00 0.00 0.00 0.00 0.00 0.00 0.00 0.00 0.00 0.00 0.00 0.00 0.00 0.00 0.00 0.00 0.00 0.00 0.00 0.00 0.00
0.00 0.00 0.00 0.00 0.00 0.00 0.00 0.00 0.00 0.00 0.00 0.00 0.00 0.00 0.00 0.00 0.00 0.00 0.00 0.00 0.00 0.00 0.00 0.00 0.00 0.00 0.00 0.00 0.00 0.00 0.00 0.00 0.00 0.00 0.00 0.00 0.00 0.00 0.00 0.00 0.00 0.00 0.00 0.00 0.00
0.00 0.00 0.00 0.00 0.00 0.00 0.00 0.00 0.00 0.00 0.00 0.00 0.00 0.00 0.00 0.00 0.00 0.00 0.00 0.00 0.00 0.00 0.00 0.00 0.00 0.00 0.00 0.00 0.00 0.00 0.00 0.00 0.00 0.00 0.00 0.00 0.00 0.00 0.00 0.00 0.00 0.00 0.00 0.00 0.00
0.00 0.00 0.00 0.00 0.00 0.00 0.00 0.00 0.00 0.00 0.00 0.00 0.00 0.00 0.00 0.00 0.00 0.00 0.00 0.00 0.00 0.00 0.00 0.00 0.00 0.00 0.00 0.00 0.00 0.00 0.00 0.00 0.00 0.00 0.00 0.00 0.00 0.00 0.00 0.00 0.00 0.00 0.00 0.00 0.00
MSLP
1023.51 1023.44 1023.31 1023.19 1022.94 1022.69 1022.46 1022.22 1021.95 1021.70 1021.43 1021.15 1020.89 1020.59 1020.37 1020.03 1019.60 1019.28 1019.26 1019.35 1019.07 1018.79 1018.66 1018.34 1018.09 1017.85 1017.69 1017.76 1017.77 1017.48 1017.21 1014.63 1014.65 1014.58 1014.26 1013.48 1013.42 1012.44 1012.06 1011.75 1011.82 1011.81 1011.71 1011.87 1012.50
1023.55 1023.47 1023.38 1023.19 1022.97 1022.70 1022.43 1022.12 1021.86 1021.67 1021.40 1021.01 1020.70 1020.48 1020.12 1019.93 1019.96 1019.57 1019.37 1019.05 1018.89 1018.82 1018.92 1018.98 1018.68 1018.36 1018.46 1018.37 1018.15 1017.93 1017.13 1015.82 1015.12 1014.82 1014.61 1014.20 1013.65 1013.12 1012.53 1012.22 1011.86 1011.94 1012.13 1012.32 1012.70
1023.57 1023.45 1023.33 1023.21 1023.03 1022.73 1022.39 1022.06 1021.79 1021.50 1021.25 1020.88 1020.55 1020.12 1019.92 1019.77 1019.96 1019.47 1019.07 1018.91 1018.77 1018.86 1019.03 1019.22 1019.25 1019.12 1019.08 1018.93 1018.60 1018.04 1017.02 1016.07 1015.06 1015.10 1014.89 1014.61 1014.22 1013.83 1013.07 1012.19 1011.95 1011.67 1011.75 1012.35 1012.55
1023.47 1023.37 1023.27 1023.06 1022.87 1022.64 1022.27 1021.87 1021.56 1021.25 1021.00 1020.78 1020.34 1020.03 1019.71 1019.66 1019.85 1019.15 1018.91 1018.91 1018.73 1018.86 1019.14 1019.36 1019.53 1019.73 1019.72 1019.51 1019.02 1018.60 1017.28 1017.03 1016.27 1015.63 1015.36 1014.97 1014.67 1013.93 1013.44 1012.30 1011.88 1011.83 1011.79 1012.47 1012.58
1023.27 1023.19 1023.11 1022.95 1022.74 1022.44 1022.14 1021.76 1021.21 1020.95 1020.89 1020.66 1020.42 1019.91 1019.91 1019.68 1019.31 1018.92 1018.94 1018.88 1018.77 1018.98 1019.43 1019.67 1019.79 1019.87 1020.00 1019.79 1019.27 1018.72 1017.94 1017.36 1016.69 1016.27 1015.57 1014.94 1014.41 1014.20 1013.46 1012.95 1012.29 1011.67 1011.80 1011.69 1012.08
1023.11 1023.02 1022.94 1022.83 1022.53 1022.20 1021.88 1021.54 1021.24 1020.78 1020.43 1020.32 1020.31 1020.27 1019.97 1019.77 1018.79 1018.92 1019.02 1018.83 1018.91 1019.09 1019.45 1019.68 1019.61 1019.65 1019.88 1019.64 1019.17 1018.08 1017.66 1016.99 1016.64 1016.36 1015.82 1015.16 1014.23 1013.88 1013.27 1013.01 1012.49 1011.68 1011.60 1011.44 1011.30
1023.00 1022.88 1022.72 1022.56 1022.33 1022.08 1021.74 1021.35 1020.94 1020.44 1019.97 1019.82 1019.95 1020.35 1020.21 1019.42 1018.87 1018.98 1018.81 1018.76 1018.87 1019.11 1019.29 1019.30 1019.53 1019.50 1019.56 1019.22 1018.78 1018.38 1017.55 1016.73 1016.00 1015.25 1015.11 1015.08 1014.59 1013.53 1013.34 1013.29 1012.65 1011.59 1011.50 1011.63 1011.69
1022.77 1022.77 1022.61 1022.35 1022.03 1021.67 1021.33 1020.92 1020.49 1020.15 1019.82 1019.74 1019.90 1020.40 1019.83 1018.67 1018.66 1018.79 1018.68 1018.74 1018.77 1018.96 1019.11 1019.25 1019.50 1019.54 1019.35 1019.12 1018.66 1018.17 1017.76 1016.26 1015.12 1015.11 1014.72 1014.80 1013.78 1013.32 1013.46 1013.50 1013.00 1011.78 1011.51 1011.59 1011.42
1022.62 1022.60 1022.47 1022.26 1021.92 1021.41 1020.90 1020.39 1020.07 1019.88 1019.63 1019.63 1019.88 1020.11 1019.55 1018.67 1018.68 1018.79 1018.73 1018.65 1018.63 1018.86 1019.06 1019.16 1019.30 1019.12 1019.01 1018.93 1018.48 1018.31 1017.40 1016.35 1015.22 1014.33 1014.51 1014.22 1013.34 1013.50 1013.73 1014.17 1013.89 1012.91 1012.37 1012.13 1011.69
1022.63 1022.43 1022.30 1021.97 1021.66 1021.20 1020.53 1020.13 1020.00 1019.88 1019.92 1020.01 1020.14 1020.31 1019.54 1019.50 1019.06 1018.78 1018.67 1018.74 1018.79 1018.86 1019.20 1019.20 1019.27 1019.17 1018.98 1018.88 1018.42 1017.88 1017.07 1016.28 1015.48 1014.31 1014.04 1013.84 1014.20 1014.42 1014.68 1015.79 1014.34 1014.09 1013.66 1012.81 1011.64
1022.47 1022.51 1022.24 1021.96 1021.57 1021.02 1020.59 1020.20 1020.95 1020.97 1020.59 1020.72 1020.65 1020.33 1019.76 1019.44 1019.17 1018.84 1018.75 1018.76 1018.93 1019.14 1019.44 1019.31 1019.49 1019.28 1018.87 1018.53 1018.02 1017.19 1016.74 1015.73 1014.66 1014.33 1014.32 1014.14 1014.76 1015.08 1016.02 1017.01 1014.42 1014.29 1014.38 1013.78 1013.55
1022.28 1022.40 1022.20 1021.88 1021.57 1021.23 1021.37 1022.04 1022.43 1023.08 1021.94 1020.77 1020.55 1020.28 1019.74 1019.69 1019.59 1019.05 1018.91 1019.20 1019.42 1019.75 1019.65 1019.73 1019.31 1018.75 1018.57 1018.07 1017.53 1017.09 1016.41 1015.14 1013.85 1014.05 1014.37 1014.45 1015.24 1016.26 1016.91 1016.76 1015.51 1014.13 1015.77 1015.13 1015.04
1022.18 1022.29 1022.13 1021.90 1021.61 1021.80 1022.36 1022.61 1022.65 1022.67 1022.51 1021.19 1020.20 1019.99 1019.65 1019.65 1019.75 1019.39 1019.31 1019.60 1019.80 1019.98 1020.15 1019.91 1019.24 1018.43 1018.20 1017.74 1017.14 1016.68 1016.10 1015.34 1014.29 1013.86 1014.15 1014.67 1016.02 1016.47 1017.48 1016.61 1015.37 1015.07 1016.26 1016.70 1016.40
1022.01 1022.16 1022.10 1021.82 1022.10 1022.43 1022.62 1022.79 1022.71 1022.69 1022.71 1021.60 1020.45 1019.85 1019.65 1019.51 1019.72 1019.36 1019.17 1019.57 1019.83 1020.06 1020.12 1019.84 1018.99 1018.49 1018.09 1017.62 1017.35 1016.53 1015.96 1015.34 1014.51 1014.20 1014.83 1015.81 1016.91 1017.43 1017.32 1016.82 1016.47 1016.47 1016.73 1017.41 1016.59
1021.91 1022.08 1022.17 1022.00 1022.55 1022.67 1022.66 1022.41 1022.51 1022.87 1022.88 1022.02 1020.60 1019.61 1019.97 1020.27 1020.32 1019.50 1019.49 1019.27 1019.89 1020.33 1020.47 1019.90 1019.33 1018.57 1018.07 1017.68 1017.23 1016.65 1015.97 1015.63 1015.19 1015.02 1015.55 1016.24 1016.65 1017.88 1017.52 1017.73 1018.05 1018.40 1018.61 1019.70 1018.72
1021.86 1022.03 1022.22 1022.41 1022.76 1022.69 1022.68 1022.58 1022.71 1023.20 1022.89 1021.97 1021.06 1020.50 1020.33 1020.70 1020.60 1020.15 1019.94 1019.65 1020.01 1020.32 1020.40 1020.02 1019.27 1018.81 1018.08 1017.20 1017.03 1016.35 1016.03 1015.79 1015.68 1015.82 1016.79 1017.26 1017.26 1018.21 1018.49 1019.13 1019.29 1019.12 1018.62 1017.51 1018.59
1021.88 1022.12 1022.34 1022.57 1022.92 1022.69 1022.76 1023.15 1024.28 1023.82 1023.34 1022.74 1022.00 1021.44 1021.35 1021.59 1021.20 1021.06 1021.07 1021.18 1021.10 1020.96 1021.13 1020.57 1019.45 1018.72 1018.19 1017.59 1016.86 1016.55 1016.59 1017.17 1016.99 1017.09 1018.00 1017.67 1017.72 1019.64 1019.43 1019.36 1019.61 1019.28 1019.34 1019.34 1019.09
1021.68 1022.19 1022.44 1022.58 1022.77 1022.71 1023.16 1024.15 1025.29 1024.33 1023.51 1022.63 1022.40 1022.19 1022.39 1022.46 1022.28 1022.13 1021.77 1022.25 1021.93 1021.74 1021.69 1021.53 1020.19 1019.29 1018.62 1018.39 1018.35 1017.89 1017.87 1018.58 1019.09 1019.07 1018.96 1018.52 1019.64 1020.38 1020.16 1019.97 1019.69 1019.84 1019.71 1019.48 1019.35
1021.59 1022.65 1022.73 1022.72 1022.76 1023.01 1024.04 1025.45 1024.69 1024.12 1023.30 1023.06 1022.78 1022.49 1023.07 1022.90 1022.92 1023.07 1022.85 1022.93 1022.44 1022.10 1022.18 1021.56 1020.64 1019.50 1018.91 1018.63 1018.58 1018.15 1018.36 1018.87 1019.53 1020.19 1019.99 1020.59 1020.57 1020.18 1020.19 1020.20 1019.98 1019.82 1019.88 1020.12 1020.20
1022.07 1022.82 1023.09 1022.88 1022.78 1023.25 1025.03 1025.21 1024.60 1023.78 1023.33 1022.96 1022.84 1022.78 1023.28 1023.19 1023.13 1023.39 1023.41 1023.16 1022.70 1022.43 1022.44 1022.13 1021.61 1020.19 1019.33 1018.91 1018.72 1018.77 1018.90 1019.09 1019.59 1020.68 1021.13 1021.26 1020.94 1020.89 1020.68 1020.74 1020.65 1020.64 1021.01 1020.87 1020.61
1022.20 1022.94 1023.15 1023.20 1023.05 1024.46 1025.52 1025.72 1024.62 1023.72 1023.24 1023.10 1022.94 1023.00 1023.21 1023.07 1023.33 1023.69 1023.55 1023.25 1022.62 1022.51 1022.39 1022.25 1022.23 1021.04 1020.49 1020.49 1020.31 1019.87 1019.60 1019.96 1020.35 1020.77 1020.95 1021.26 1021.47 1020.84 1020.90 1021.08 1021.24 1021.43 1021.57 1021.66 1021.31
1022.23 1023.43 1022.98 1023.31 1024.05 1025.79 1026.07 1025.12 1024.59 1023.78 1023.25 1023.00 1022.92 1022.84 1022.99 1022.93 1023.06 1023.49 1023.33 1022.89 1022.47 1022.45 1022.50 1022.58 1022.74 1022.41 1021.80 1021.19 1020.96 1020.74 1020.69 1020.67 1020.87 1021.38 1021.20 1021.19 1021.53 1020.83 1021.00 1021.17 1021.40 1021.81 1021.97 1021.79 1021.83
1021.72 1023.07 1023.13 1023.10 1024.53 1026.03 1025.85 1025.39 1024.89 1024.13 1023.42 1023.13 1022.95 1022.67 1022.67 1022.73 1022.95 1023.02 1022.89 1022.51 1022.38 1022.51 1022.66 1022.95 1023.56 1023.34 1022.74 1022.27 1021.66 1021.50 1021.28 1020.95 1021.03 1021.26 1021.47 1021.46 1021.71 1021.17 1021.30 1021.53 1021.90 1022.03 1022.05 1021.97 1021.93
1021.18 1022.72 1023.05 1023.33 1023.97 1024.27 1025.49 1025.28 1024.68 1023.99 1023.47 1023.18 1022.82 1022.75 1022.64 1022.54 1022.45 1022.65 1022.83 1022.68 1022.59 1022.50 1022.68 1023.34 1024.07 1024.42 1024.24 1024.01 1023.71 1022.71 1022.03 1021.54 1021.44 1021.72 1021.66 1021.38 1021.39 1021.49 1021.74 1022.04 1022.29 1022.31 1022.22 1022.24 1022.22
1019.64 1020.95 1020.71 1022.22 1023.12 1023.80 1023.99 1023.77 1023.78 1024.10 1023.73 1023.33 1023.45 1022.62 1022.44 1022.92 1023.07 1022.98 1022.91 1023.04 1022.93 1022.90 1023.28 1023.99 1025.09 1025.48 1025.19 1024.87 1024.48 1023.67 1022.74 1022.08 1021.67 1021.65 1021.99 1021.63 1021.55 1021.63 1021.77 1022.19 1022.46 1022.56 1022.52 1022.48 1022.40
1018.85 1019.79 1020.87 1020.95 1021.27 1022.76 1023.11 1022.79 1022.51 1022.95 1022.92 1023.36 1023.03 1022.14 1022.13 1022.14 1022.41 1022.78 1023.17 1023.43 1023.22 1023.53 1024.15 1024.74 1025.89 1026.61 1026.79 1026.11 1025.49 1024.62 1023.23 1022.45 1021.96 1021.54 1021.61 1021.79 1021.95 1021.68 1021.96 1022.27 1022.61 1022.76 1022.70 1022.59 1022.60
1017.44 1017.73 1018.04 1019.84 1021.22 1021.68 1021.22 1021.47 1021.49 1021.27 1022.07 1021.82 1022.23 1022.21 1022.28 1022.07 1022.28 1023.00 1023.31 1023.65 1023.64 1024.17 1024.86 1025.91 1026.83 1028.20 1028.52 1027.67 1026.45 1025.23 1023.06 1022.23 1021.71 1021.44 1021.17 1021.57 1021.55 1021.83 1022.21 1022.39 1022.54 1022.65 1022.51 1022.62 1022.76
Thickness
5617 5616 5616 5615 5616 5617 5617 5618 5619 5618 5619 5620 5621 5621 5621 5623 5625 5626 5623 5621 5621 5621 5622 5624 5625 5625 5626 5624 5623 5624 5615 5641 5638 5632 5633 5650 5651 5668 5669 5671 5675 5685 5691 5695 5692
5613 5613 5612 5612 5612 5613 5614 5615 5615 5615 5616 5618 5619 5618 5619 5618 5618 5618 5616 5616 5615 5614 5613 5609 5611 5613 5609 5609 5608 5605 5602 5619 5623 5620 5617 5626 5635 5644 5654 5655 5666 5677 5680 5684 5684
5610 5610 5609 5608 5608 5609 5611 5612 5612 5612 5613 5614 5614 5616 5616 5616 5614 5615 5614 5613 5611 5607 5605 5601 5599 5599 5596 5592 5592 5593 5599 5601 5609 5602 5603 5607 5615 5625 5640 5645 5659 5668 5676 5676 5681
5607 5607 5606 5607 5607 5607 5609 5610 5610 5611 5611 5611 5612 5613 5614 5613 5613 5612 5610 5606 5604 5600 5597 5592 5588 5584 5579 5575 5574 5570 5578 5571 5577 5578 5575 5581 5592 5605 5622 5647 5648 5656 5667 5668 5671
5606 5605 5604 5603 5604 5605 5606 5607 5609 5609 5607 5606 5607 5609 5607 5607 5607 5606 5603 5601 5598 5594 5587 5581 5576 5570 5562 5557 5556 5547 5548 5546 5547 5549 5555 5561 5570 5579 5606 5623 5632 5650 5660 5668 5669
5604 5603 5602 5601 5601 5602 5603 5604 5604 5605 5605 5604 5602 5601 5601 5601 5604 5600 5597 5595 5591 5586 5579 5573 5570 5562 5550 5541 5543 5545 5536 5537 5536 5533 5533 5538 5553 5563 5594 5608 5619 5640 5653 5662 5669
5600 5601 5601 5599 5598 5598 5599 5600 5602 5604 5604 5603 5600 5595 5592 5598 5597 5593 5591 5588 5584 5578 5574 5568 5560 5554 5547 5541 5541 5535 5528 5529 5528 5529 5525 5524 5528 5549 5575 5588 5607 5631 5647 5653 5657
5595 5595 5595 5596 5597 5598 5598 5599 5600 5601 5600 5598 5594 5589 5587 5597 5593 5589 5585 5582 5578 5572 5567 5560 5552 5544 5538 5535 5532 5528 5523 5524 5529 5515 5519 5517 5529 5553 5561 5574 5592 5622 5638 5646 5655
5590 5590 5590 5590 5591 5593 5596 5598 5599 5597 5597 5595 5592 5586 5586 5591 5588 5582 5579 5577 5572 5567 5559 5553 5546 5542 5533 5528 5526 5517 5514 5513 5516 5517 5514 5520 5535 5543 5548 5560 5577 5602 5624 5635 5646
5583 5585 5586 5587 5588 5590 5592 5593 5592 5592 5590 5586 5584 5581 5584 5578 5579 5578 5575 5569 5565 5560 5552 5546 5539 5532 5524 5520 5521 5514 5509 5502 5501 5514 5513 5523 5526 5530 5540 5543 5569 5584 5604 5624 5636
5578 5577 5579 5581 5583 5585 5589 5588 5577 5579 5577 5578 5575 5574 5575 5574 5574 5574 5569 5564 5559 5555 5544 5540 5533 5507 5523 5523 5519 5520 5510 5501 5505 5507 5510 5518 5520 5528 5523 5531 5568 5581 5587 5605 5616
5572 5572 5573 5574 5576 5576 5576 5565 5563 5553 5557 5569 5568 5567 5569 5567 5563 5567 5563 5560 5553 5542 5536 5528 5528 5533 5524 5528 5526 5513 5504 5510 5512 5505 5509 5519 5518 5508 5508 5532 5560 5583 5574 5584 5597
5566 5565 5565 5566 5567 5566 5560 5557 5555 5552 5548 5561 5568 5566 5566 5564 5556 5555 5555 5547 5542 5539 5526 5529 5535 5529 5526 5529 5527 5518 5512 5505 5522 5525 5523 5524 5515 5517 5512 5538 5563 5576 5574 5570 5576
5559 5557 5557 5559 5557 5553 5550 5547 5546 5546 5522 5556 5560 5560 5560 5558 5553 5552 5550 5546 5540 5534 5525 5525 5530 5526 5525 5530 5521 5523 5530 5519 5533 5542 5537 5513 5527 5507 5522 5537 5549 5561 5568 5564 5575
5550 5549 5548 5548 5544 5543 5544 5545 5542 5536 5524 5547 5549 5555 5549 5546 5540 5549 5542 5543 5534 5527 5525 5529 5523 5521 5523 5521 5523 5528 5530 5531 5535 5534 5537 5521 5530 5518 5520 5526 5533 5542 5550 5540 5556
5542 5541 5539 5538 5536 5536 5534 5534 5533 5516 5525 5540 5540 5537 5544 5535 5535 5534 5533 5532 5530 5524 5519 5518 5519 5521 5526 5526 5524 5530 5536 5539 5537 5532 5529 5523 5532 5520 5520 5517 5516 5531 5538 5551 5554
5532 5530 5530 5528 5526 5527 5527 5522 5500 5508 5517 5516 5523 5528 5529 5522 5529 5521 5521 5509 5510 5496 5498 5506 5520 5518 5522 5522 5527 5525 5521 5488 5507 5525 5527 5513 5527 5500 5508 5514 5516 5524 5527 5529 5533
5524 5520 5520 5520 5518 5519 5515 5495 5490 5473 5487 5518 5519 5521 5518 5511 5512 5508 5516 5496 5504 5512 5506 5492 5496 5512 5519 5521 5511 5512 5516 5497 5485 5512 5523 5511 5505 5499 5499 5509 5516 5516 5520 5525 5531
5517 5510 5510 5512 5511 5510 5496 5464 5480 5477 5512 5510 5511 5507 5484 5506 5508 5497 5493 5490 5497 5504 5500 5495 5496 5508 5516 5516 5513 5516 5508 5510 5493 5468 5494 5491 5500 5509 5509 5511 5514 5519 5520 5520 5520
5506 5500 5499 5502 5504 5501 5476 5492 5475 5500 5505 5506 5511 5503 5484 5483 5502 5493 5471 5485 5489 5494 5491 5496 5485 5506 5509 5514 5515 5513 5511 5505 5485 5462 5477 5493 5495 5499 5502 5501 5503 5506 5505 5508 5512
5495 5487 5491 5490 5495 5476 5461 5456 5479 5495 5499 5499 5485 5494 5496 5496 5475 5488 5483 5481 5488 5488 5488 5489 5489 5495 5501 5493 5491 5489 5497 5493 5491 5489 5487 5486 5489 5500 5500 5498 5497 5496 5496 5495 5501
5482 5466 5485 5482 5466 5442 5449 5452 5483 5490 5492 5491 5489 5491 5486 5486 5485 5471 5484 5486 5489 5488 5486 5482 5476 5458 5492 5492 5486 5490 5488 5485 5477 5485 5478 5487 5481 5495 5494 5492 5492 5490 5490 5492 5492
5473 5470 5474 5478 5451 5433 5437 5451 5467 5481 5483 5482 5480 5482 5484 5483 5472 5477 5478 5482 5482 5484 5483 5480 5444 5429 5462 5476 5483 5477 5483 5487 5481 5478 5475 5471 5471 5483 5484 5483 5483 5483 5484 5487 5489
5470 5467 5468 5471 5460 5456 5436 5444 5459 5471 5477 5478 5479 5476 5478 5478 5476 5474 5473 5476 5477 5479 5480 5475 5458 5456 5451 5462 5456 5464 5474 5478 5479 5453 5475 5478 5478 5484 5478 5477 5476 5477 5479 5481 5482
5469 5464 5480 5475 5468 5451 5462 5466 5461 5453 5457 5466 5466 5470 5476 5463 5465 5467 5467 5466 5470 5475 5466 5464 5438 5439 5454 5452 5451 5458 5467 5472 5480 5479 5460 5478 5471 5473 5472 5469 5468 5470 5473 5475 5477
5465 5463 5461 5464 5472 5462 5464 5465 5471 5461 5460 5452 5455 5471 5471 5472 5471 5465 5461 5461 5466 5462 5457 5448 5424 5430 5424 5439 5435 5433 5455 5460 5465 5473 5470 5469 5472 5469 5466 5460 5461 5463 5466 5468 5469
5473 5476 5478 5468 5458 5459 5471 5465 5471 5473 5464 5469 5463 5462 5461 5466 5467 5456 5454 5448 5456 5452 5446 5435 5415 5399 5410 5407 5402 5414 5439 5454 5466 5464 5465 5466 5471 5463 5462 5458 5455 5457 5462 5464 5465